"Period start","avg(HW err(1)/warn(2) (#))","avg(Visibility (m))","avg(Weather code (#))","avg(Precip intensity (mm/h))","min(HW err(1)/warn(2) (#))","max(HW err(1)/warn(2) (#))","std(HW err(1)/warn(2) (#))","med(HW err(1)/warn(2) (#))","min(Visibility (m))","max(Visibility (m))","std(Visibility (m))","med(Visibility (m))","min(Weather code (#))","max(Weather code (#))","std(Weather code (#))","med(Weather code (#))","min(Precip intensity (mm/h))","max(Precip intensity (mm/h))","std(Precip intensity (mm/h))","med(Precip intensity (mm/h))"
2014-09-30 00:00:00,2,3411,71,1.73,2,2,0,2,2679,4309,526,3256,71,71,0,71,0.75,2.65,0.54,1.77
2014-09-30 00:10:00,2,5270,71,1.05,2,2,0,2,3570,6796,1031,5092,71,71,0,71,0.55,1.50,0.27,1.12
2014-09-30 00:20:00,2,5618,71,0.72,2,2,0,2,4722,6246,509,5713,71,71,0,71,0.25,1.40,0.35,0.73
2014-09-30 00:30:00,2,6457,71,0.34,2,2,0,2,5294,7496,736,6600,71,71,0,71,0.05,1.05,0.26,0.30
2014-09-30 00:40:00,2,8138,71,0.23,2,2,0,2,5941,10937,1550,7848,71,71,0,71,0.05,0.80,0.21,0.17
2014-09-30 00:50:00,2,19477,72,0.03,2,2,0,2,11729,27063,5274,20355,71,77,2,71,0.00,0.15,0.05,0.00
2014-09-30 01:00:00,2,28500,75,0.00,2,2,0,2,20349,35787,4936,27642,71,77,3,77,0.00,0.00,0.00,0.00
2014-09-30 01:10:00,2,42236,59,0.00,2,2,0,2,32213,50000,6226,43139,0,77,30,71,0.00,0.00,0.00,0.00
2014-09-30 01:20:00,2,46075,0,0.00,2,2,0,2,38707,50000,3541,46803,0,0,0,0,0.00,0.00,0.00,0.00
2014-09-30 01:30:00,2,46604,36,0.01,2,2,0,2,42440,50000,2503,46098,0,77,36,36,0.00,0.05,0.02,0.00
2014-09-30 01:40:00,2,47064,22,0.00,2,2,0,2,39520,50000,3945,49615,0,77,34,0,0.00,0.00,0.00,0.00
2014-09-30 01:50:00,2,49770,0,0.00,2,2,0,2,47701,50000,690,50000,0,0,0,0,0.00,0.00,0.00,0.00
2014-09-30 02:00:00,2,47670,0,0.00,2,2,0,2,40245,50000,3694,50000,0,0,0,0,0.00,0.00,0.00,0.00
2014-09-30 02:10:00,2,46967,4,0.00,2,2,0,2,27434,50000,6735,50000,0,40,12,0,0.00,0.00,0.00,0.00
2014-09-30 02:20:00,2,43024,41,0.01,2,2,0,2,28648,50000,5845,44276,41,41,0,41,0.00,0.15,0.05,0.00
2014-09-30 02:30:00,2,49879,4,0.00,2,2,0,2,49006,50000,298,50000,0,41,12,0,0.00,0.00,0.00,0.00
2014-09-30 02:40:00,2,48096,0,0.00,2,2,0,2,42580,50000,2256,48873,0,0,0,0,0.00,0.00,0.00,0.00
2014-09-30 02:50:00,2,49618,0,0.00,2,2,0,2,46307,50000,1104,50000,0,0,0,0,0.00,0.00,0.00,0.00
2014-09-30 03:00:00,2,49704,0,0.00,2,2,0,2,47041,50000,888,50000,0,0,0,0,0.00,0.00,0.00,0.00
2014-09-30 03:10:00,2,50000,0,0.00,2,2,0,2,50000,50000,0,50000,0,0,0,0,0.00,0.00,0.00,0.00
2014-09-30 03:20:00,2,49392,0,0.00,2,2,0,2,47429,50000,994,50000,0,0,0,0,0.00,0.00,0.00,0.00
2014-09-30 03:30:00,2,49489,0,0.00,2,2,0,2,47217,50000,886,50000,0,0,0,0,0.00,0.00,0.00,0.00
2014-09-30 03:40:00,2,49750,0,0.00,2,2,0,2,47497,50000,751,50000,0,0,0,0,0.00,0.00,0.00,0.00
2014-09-30 03:50:00,2,49467,0,0.00,2,2,0,2,46792,50000,992,50000,0,0,0,0,0.00,0.00,0.00,0.00
2014-09-30 04:00:00,2,50000,0,0.00,2,2,0,2,50000,50000,0,50000,0,0,0,0,0.00,0.00,0.00,0.00
2014-09-30 04:10:00,2,50000,0,0.00,2,2,0,2,50000,50000,0,50000,0,0,0,0,0.00,0.00,0.00,0.00
2014-09-30 04:20:00,2,49953,0,0.00,2,2,0,2,49533,50000,140,50000,0,0,0,0,0.00,0.00,0.00,0.00
2014-09-30 04:30:00,2,49709,0,0.00,2,2,0,2,47539,50000,730,50000,0,0,0,0,0.00,0.00,0.00,0.00
2014-09-30 04:40:00,2,50000,0,0.00,2,2,0,2,50000,50000,0,50000,0,0,0,0,0.00,0.00,0.00,0.00
2014-09-30 04:50:00,2,49858,0,0.00,2,2,0,2,48902,50000,333,50000,0,0,0,0,0.00,0.00,0.00,0.00
2014-09-30 05:00:00,2,49936,0,0.00,2,2,0,2,49362,50000,191,50000,0,0,0,0,0.00,0.00,0.00,0.00
2014-09-30 05:10:00,2,48646,0,0.00,2,2,0,2,42977,50000,2180,50000,0,0,0,0,0.00,0.00,0.00,0.00
2014-09-30 05:20:00,2,49904,0,0.00,2,2,0,2,49041,50000,288,50000,0,0,0,0,0.00,0.00,0.00,0.00
2014-09-30 05:30:00,2,49846,0,0.00,2,2,0,2,48455,50000,464,50000,0,0,0,0,0.00,0.00,0.00,0.00
2014-09-30 05:40:00,2,49757,0,0.00,2,2,0,2,48478,50000,505,50000,0,0,0,0,0.00,0.00,0.00,0.00
2014-09-30 05:50:00,2,50000,0,0.00,2,2,0,2,50000,50000,0,50000,0,0,0,0,0.00,0.00,0.00,0.00
2014-09-30 06:00:00,2,49776,0,0.00,2,2,0,2,47902,50000,626,50000,0,0,0,0,0.00,0.00,0.00,0.00
2014-09-30 06:10:00,2,49337,0,0.00,2,2,0,2,47317,50000,941,49962,0,0,0,0,0.00,0.00,0.00,0.00
2014-09-30 06:20:00,2,49640,0,0.00,2,2,0,2,46401,50000,1080,50000,0,0,0,0,0.00,0.00,0.00,0.00
2014-09-30 06:30:00,2,49852,0,0.00,2,2,0,2,48525,50000,442,50000,0,0,0,0,0.00,0.00,0.00,0.00
2014-09-30 06:40:00,2,49510,0,0.00,2,2,0,2,45103,50000,1469,50000,0,0,0,0,0.00,0.00,0.00,0.00
2014-09-30 06:50:00,2,48689,0,0.00,2,2,0,2,44715,50000,2070,50000,0,0,0,0,0.00,0.00,0.00,0.00
2014-09-30 07:00:00,2,49560,0,0.00,2,2,0,2,47984,50000,785,50000,0,0,0,0,0.00,0.00,0.00,0.00
2014-09-30 07:10:00,2,48432,0,0.00,2,2,0,2,41389,50000,2568,49682,0,0,0,0,0.00,0.00,0.00,0.00
2014-09-30 07:20:00,2,49781,0,0.00,2,2,0,2,48528,50000,470,50000,0,0,0,0,0.00,0.00,0.00,0.00
2014-09-30 07:30:00,2,48912,0,0.00,2,2,0,2,45775,50000,1508,50000,0,0,0,0,0.00,0.00,0.00,0.00
2014-09-30 07:40:00,2,49603,0,0.00,2,2,0,2,47190,50000,856,50000,0,0,0,0,0.00,0.00,0.00,0.00
2014-09-30 07:50:00,2,49270,0,0.00,2,2,0,2,47690,50000,931,49945,0,0,0,0,0.00,0.00,0.00,0.00
2014-09-30 08:00:00,2,49342,0,0.00,2,2,0,2,46833,50000,1086,50000,0,0,0,0,0.00,0.00,0.00,0.00
2014-09-30 08:10:00,2,49105,0,0.00,2,2,0,2,46285,50000,1424,50000,0,0,0,0,0.00,0.00,0.00,0.00
2014-09-30 08:20:00,2,50000,0,0.00,2,2,0,2,50000,50000,0,50000,0,0,0,0,0.00,0.00,0.00,0.00
2014-09-30 08:30:00,2,49991,0,0.00,2,2,0,2,49913,50000,26,50000,0,0,0,0,0.00,0.00,0.00,0.00
2014-09-30 08:40:00,2,49665,0,0.00,2,2,0,2,46648,50000,1006,50000,0,0,0,0,0.00,0.00,0.00,0.00
2014-09-30 08:50:00,2,49946,0,0.00,2,2,0,2,49456,50000,163,50000,0,0,0,0,0.00,0.00,0.00,0.00
2014-09-30 09:00:00,2,50000,0,0.00,2,2,0,2,50000,50000,0,50000,0,0,0,0,0.00,0.00,0.00,0.00
2014-09-30 09:10:00,2,50000,0,0.00,2,2,0,2,50000,50000,0,50000,0,0,0,0,0.00,0.00,0.00,0.00
2014-09-30 09:20:00,2,50000,0,0.00,2,2,0,2,50000,50000,0,50000,0,0,0,0,0.00,0.00,0.00,0.00
2014-09-30 09:30:00,2,50000,0,0.00,2,2,0,2,50000,50000,0,50000,0,0,0,0,0.00,0.00,0.00,0.00
2014-09-30 09:40:00,2,49604,0,0.00,2,2,0,2,47369,50000,790,50000,0,0,0,0,0.00,0.00,0.00,0.00
2014-09-30 09:50:00,2,50000,0,0.00,2,2,0,2,50000,50000,0,50000,0,0,0,0,0.00,0.00,0.00,0.00
2014-09-30 10:00:00,2,50000,0,0.00,2,2,0,2,50000,50000,0,50000,0,0,0,0,0.00,0.00,0.00,0.00
2014-09-30 10:10:00,2,49773,0,0.00,2,2,0,2,47730,50000,681,50000,0,0,0,0,0.00,0.00,0.00,0.00
2014-09-30 10:20:00,2,49430,0,0.00,2,2,0,2,46670,50000,1047,50000,0,0,0,0,0.00,0.00,0.00,0.00
2014-09-30 10:30:00,2,48838,0,0.00,2,2,0,2,47430,50000,1177,49080,0,0,0,0,0.00,0.00,0.00,0.00
2014-09-30 10:40:00,2,39435,4,0.00,2,2,0,2,17316,50000,10072,42848,0,41,12,0,0.00,0.00,0.00,0.00
2014-09-30 10:50:00,2,21666,41,0.00,2,2,0,2,15185,29252,5393,19552,41,41,0,41,0.00,0.00,0.00,0.00
2014-09-30 11:00:00,2,21220,41,0.00,2,2,0,2,14124,29412,4540,20556,41,41,0,41,0.00,0.00,0.00,0.00
2014-09-30 11:10:00,2,19040,41,0.00,2,2,0,2,15538,23009,2565,18304,41,41,0,41,0.00,0.00,0.00,0.00
2014-09-30 11:20:00,2,27147,12,0.00,2,2,0,2,19849,32266,3989,27986,0,41,19,0,0.00,0.00,0.00,0.00
2014-09-30 11:30:00,2,30667,0,0.00,2,2,0,2,26682,36332,3161,29556,0,0,0,0,0.00,0.00,0.00,0.00
2014-09-30 11:40:00,2,28471,0,0.00,2,2,0,2,24542,33353,2529,28230,0,0,0,0,0.00,0.00,0.00,0.00
2014-09-30 11:50:00,2,27204,0,0.00,2,2,0,2,26206,30602,1190,26863,0,0,0,0,0.00,0.00,0.00,0.00
2014-09-30 12:00:00,2,25124,0,0.00,2,2,0,2,23322,28990,1820,24513,0,0,0,0,0.00,0.00,0.00,0.00
2014-09-30 12:10:00,2,21429,0,0.00,2,2,0,2,20352,22678,679,21589,0,0,0,0,0.00,0.00,0.00,0.00
2014-09-30 12:20:00,2,18471,0,0.00,2,2,0,2,16293,20241,1044,18371,0,0,0,0,0.00,0.00,0.00,0.00
2014-09-30 12:30:00,2,16494,0,0.00,2,2,0,2,15519,17675,625,16402,0,0,0,0,0.00,0.00,0.00,0.00
2014-09-30 12:40:00,2,16164,0,0.00,2,2,0,2,14321,18056,1095,16124,0,0,0,0,0.00,0.00,0.00,0.00
2014-09-30 12:50:00,2,16036,0,0.00,2,2,0,2,15132,16924,650,16108,0,0,0,0,0.00,0.00,0.00,0.00
2014-09-30 13:00:00,2,15767,0,0.00,2,2,0,2,15182,16523,436,15643,0,0,0,0,0.00,0.00,0.00,0.00
2014-09-30 13:10:00,2,16113,0,0.00,2,2,0,2,15058,16821,671,16446,0,0,0,0,0.00,0.00,0.00,0.00
2014-09-30 13:20:00,2,16285,0,0.00,2,2,0,2,15532,17543,581,16161,0,0,0,0,0.00,0.00,0.00,0.00
2014-09-30 13:30:00,2,17366,0,0.00,2,2,0,2,16335,18909,659,17186,0,0,0,0,0.00,0.00,0.00,0.00
2014-09-30 13:40:00,2,17598,0,0.00,2,2,0,2,16663,19401,755,17303,0,0,0,0,0.00,0.00,0.00,0.00
2014-09-30 13:50:00,2,16732,0,0.00,2,2,0,2,16030,17683,606,16396,0,0,0,0,0.00,0.00,0.00,0.00
2014-09-30 14:00:00,2,19372,0,0.00,2,2,0,2,18152,20232,614,19520,0,0,0,0,0.00,0.00,0.00,0.00
2014-09-30 14:10:00,2,17898,0,0.00,2,2,0,2,16653,19253,774,17808,0,0,0,0,0.00,0.00,0.00,0.00
2014-09-30 14:20:00,2,18795,0,0.00,2,2,0,2,16629,21385,1237,18697,0,0,0,0,0.00,0.00,0.00,0.00
2014-09-30 14:30:00,2,18159,0,0.00,2,2,0,2,17292,19491,634,18144,0,0,0,0,0.00,0.00,0.00,0.00
2014-09-30 14:40:00,2,19250,0,0.00,2,2,0,2,17238,21274,1199,18772,0,0,0,0,0.00,0.00,0.00,0.00
2014-09-30 14:50:00,2,22082,0,0.00,2,2,0,2,20310,23985,1380,22224,0,0,0,0,0.00,0.00,0.00,0.00
2014-09-30 15:00:00,2,21697,0,0.00,2,2,0,2,19056,24817,1512,21571,0,0,0,0,0.00,0.00,0.00,0.00
2014-09-30 15:10:00,2,24316,0,0.00,2,2,0,2,22506,25290,801,24562,0,0,0,0,0.00,0.00,0.00,0.00
2014-09-30 15:20:00,2,27748,0,0.00,2,2,0,2,23929,33276,2858,27314,0,0,0,0,0.00,0.00,0.00,0.00
2014-09-30 15:30:00,2,29335,0,0.00,2,2,0,2,24676,36536,2953,28856,0,0,0,0,0.00,0.00,0.00,0.00
2014-09-30 15:40:00,2,34838,0,0.00,2,2,0,2,31568,40545,2843,34808,0,0,0,0,0.00,0.00,0.00,0.00
2014-09-30 15:50:00,2,34875,0,0.00,2,2,0,2,29695,39335,2462,35372,0,0,0,0,0.00,0.00,0.00,0.00
2014-09-30 16:00:00,2,33815,0,0.00,2,2,0,2,29509,38083,2647,33482,0,0,0,0,0.00,0.00,0.00,0.00
2014-09-30 16:10:00,2,32241,0,0.00,2,2,0,2,28159,37220,2572,31489,0,0,0,0,0.00,0.00,0.00,0.00
2014-09-30 16:20:00,2,37928,0,0.00,2,2,0,2,27803,44763,4514,38322,0,0,0,0,0.00,0.00,0.00,0.00
2014-09-30 16:30:00,2,33769,0,0.00,2,2,0,2,28951,39519,4092,32237,0,0,0,0,0.00,0.00,0.00,0.00
2014-09-30 16:40:00,2,33310,0,0.00,2,2,0,2,27642,39389,3057,32914,0,0,0,0,0.00,0.00,0.00,0.00
2014-09-30 16:50:00,2,34894,0,0.00,2,2,0,2,31492,40624,2975,33974,0,0,0,0,0.00,0.00,0.00,0.00
2014-09-30 17:00:00,2,31367,0,0.00,2,2,0,2,27169,35108,2937,32098,0,0,0,0,0.00,0.00,0.00,0.00
2014-09-30 17:10:00,2,28912,0,0.00,2,2,0,2,24161,35722,3181,27996,0,0,0,0,0.00,0.00,0.00,0.00
2014-09-30 17:20:00,2,27616,0,0.00,2,2,0,2,22648,31882,2643,27611,0,0,0,0,0.00,0.00,0.00,0.00
2014-09-30 17:30:00,2,28372,0,0.00,2,2,0,2,24602,32750,2428,28785,0,0,0,0,0.00,0.00,0.00,0.00
2014-09-30 17:40:00,2,28783,0,0.00,2,2,0,2,24672,36330,3922,27659,0,0,0,0,0.00,0.00,0.00,0.00
2014-09-30 17:50:00,2,29828,0,0.00,2,2,0,2,24866,37335,3537,28638,0,0,0,0,0.00,0.00,0.00,0.00
2014-09-30 18:00:00,2,26131,0,0.00,2,2,0,2,22838,30628,2210,26298,0,0,0,0,0.00,0.00,0.00,0.00
2014-09-30 18:10:00,2,29737,0,0.00,2,2,0,2,25155,34006,3013,29234,0,0,0,0,0.00,0.00,0.00,0.00
2014-09-30 18:20:00,2,29444,0,0.00,2,2,0,2,24471,33027,2786,29910,0,0,0,0,0.00,0.00,0.00,0.00
2014-09-30 18:30:00,2,30476,0,0.00,2,2,0,2,26680,33307,2212,31168,0,0,0,0,0.00,0.00,0.00,0.00
2014-09-30 18:40:00,2,26430,0,0.00,2,2,0,2,22774,31983,2542,25901,0,0,0,0,0.00,0.00,0.00,0.00
2014-09-30 18:50:00,2,29252,0,0.00,2,2,0,2,25982,34257,2320,28612,0,0,0,0,0.00,0.00,0.00,0.00
2014-09-30 19:00:00,2,29000,0,0.00,2,2,0,2,22844,36107,4057,28274,0,0,0,0,0.00,0.00,0.00,0.00
2014-09-30 19:10:00,2,29802,0,0.00,2,2,0,2,27070,32975,1858,29212,0,0,0,0,0.00,0.00,0.00,0.00
2014-09-30 19:20:00,2,26063,0,0.00,2,2,0,2,22823,29607,2203,26124,0,0,0,0,0.00,0.00,0.00,0.00
2014-09-30 19:30:00,2,25559,0,0.00,2,2,0,2,23050,28113,1454,25658,0,0,0,0,0.00,0.00,0.00,0.00
2014-09-30 19:40:00,2,24113,0,0.00,2,2,0,2,21505,25860,1261,24490,0,0,0,0,0.00,0.00,0.00,0.00
2014-09-30 19:50:00,2,24496,0,0.00,2,2,0,2,21536,26787,1568,24434,0,0,0,0,0.00,0.00,0.00,0.00
2014-09-30 20:00:00,2,25271,0,0.00,2,2,0,2,21865,28817,2267,25622,0,0,0,0,0.00,0.00,0.00,0.00
2014-09-30 20:10:00,2,26444,0,0.00,2,2,0,2,21747,29891,2633,27183,0,0,0,0,0.00,0.00,0.00,0.00
2014-09-30 20:20:00,2,26541,0,0.00,2,2,0,2,23316,29620,2004,26116,0,0,0,0,0.00,0.00,0.00,0.00
2014-09-30 20:30:00,2,27833,0,0.00,2,2,0,2,25316,30428,1814,27104,0,0,0,0,0.00,0.00,0.00,0.00
2014-09-30 20:40:00,2,26115,0,0.00,2,2,0,2,22659,30046,2842,25520,0,0,0,0,0.00,0.00,0.00,0.00
2014-09-30 20:50:00,2,26878,0,0.00,2,2,0,2,23346,30674,1986,27068,0,0,0,0,0.00,0.00,0.00,0.00
2014-09-30 21:00:00,2,27697,0,0.00,2,2,0,2,22953,30701,2392,28388,0,0,0,0,0.00,0.00,0.00,0.00
2014-09-30 21:10:00,2,25382,0,0.00,2,2,0,2,21658,28207,2035,25226,0,0,0,0,0.00,0.00,0.00,0.00
2014-09-30 21:20:00,2,22790,0,0.00,2,2,0,2,21255,24599,1136,22554,0,0,0,0,0.00,0.00,0.00,0.00
2014-09-30 21:30:00,2,24045,0,0.00,2,2,0,2,18879,29448,2842,24089,0,0,0,0,0.00,0.00,0.00,0.00
2014-09-30 21:40:00,2,22319,0,0.00,2,2,0,2,19130,23970,1393,22570,0,0,0,0,0.00,0.00,0.00,0.00
2014-09-30 21:50:00,2,20640,0,0.00,2,2,0,2,19561,23050,921,20599,0,0,0,0,0.00,0.00,0.00,0.00
2014-09-30 22:00:00,2,21266,0,0.00,2,2,0,2,18466,24699,2005,20786,0,0,0,0,0.00,0.00,0.00,0.00
2014-09-30 22:10:00,2,21281,0,0.00,2,2,0,2,19097,22929,1142,21130,0,0,0,0,0.00,0.00,0.00,0.00
2014-09-30 22:20:00,2,22142,0,0.00,2,2,0,2,20200,26180,1755,21836,0,0,0,0,0.00,0.00,0.00,0.00
2014-09-30 22:30:00,2,25938,0,0.00,2,2,0,2,21529,28491,2332,26064,0,0,0,0,0.00,0.00,0.00,0.00
2014-09-30 22:40:00,2,24431,0,0.00,2,2,0,2,22389,29094,1806,24040,0,0,0,0,0.00,0.00,0.00,0.00
2014-09-30 22:50:00,2,26550,0,0.00,2,2,0,2,24376,28608,1278,26432,0,0,0,0,0.00,0.00,0.00,0.00
2014-09-30 23:00:00,2,26541,0,0.00,2,2,0,2,23243,31562,2384,25758,0,0,0,0,0.00,0.00,0.00,0.00
2014-09-30 23:10:00,2,24379,0,0.00,2,2,0,2,20502,27706,2004,24316,0,0,0,0,0.00,0.00,0.00,0.00
2014-09-30 23:20:00,2,26363,0,0.00,2,2,0,2,22838,29030,2309,26081,0,0,0,0,0.00,0.00,0.00,0.00
2014-09-30 23:30:00,2,33324,0,0.00,2,2,0,2,28208,43054,4340,32297,0,0,0,0,0.00,0.00,0.00,0.00
2014-09-30 23:40:00,2,27758,0,0.00,2,2,0,2,25127,29858,1364,27682,0,0,0,0,0.00,0.00,0.00,0.00
2014-09-30 23:50:00,2,28623,0,0.00,2,2,0,2,22919,36981,4723,27872,0,0,0,0,0.00,0.00,0.00,0.00
